Home   Weather   Christchurch   Past weeks

Flag for New Zealand Past Weather in Christchurch, New Zealand — Yesterday and Last 2 Weeks

Now
52 °F

Cool.


Feels Like: 52 °F
Forecast: 43 / 52 °F
Wind: 2 mph from Northeast

Location: Christchurch Airport

Current Time: Apr 29, 2017 at 7:36:11 pm

Latest Report: Apr 29, 2017 at 6:30 pm


Visibility: 6 mi

Pressure: 29.56 "Hg

Humidity: 94%

Dew Point: 50 °F

Location of ChristchurchLocation

Past Weather in Christchurch — Graph

°F

Christchurch Temperature Yesterday

Maximum temperature yesterday: 77 °F (at 1:00 pm)
Minimum temperature yesterday: 52 °F (at 12:00 am)
Average temperature yesterday: 64 °F

High & Low Weather Summary for the Past Weeks

 TemperatureHumidityPressure
High77 °F (Apr 28, 1:00 pm)100% (Apr 17, 2:00 am)30.39 "Hg (Apr 17, 2:00 am)
Low39 °F (Apr 19, 6:00 am)34% (Apr 28, 1:00 pm)29.30 "Hg (Apr 14, 6:00 pm)
Average54 °F82%29.99 "Hg
* Reported Apr 14 6:00 pm — Apr 29 6:00 pm, Christchurch, Weather by CustomWeather, © 2017

Note: Actual official high and low records may vary slightly from our data, if they occured in-between our weather recording intervals... More about our weather records

Advertising

Christchurch Weather History for the Previous 24 Hours

Scroll right to see more
 ConditionsComfort  
Time TempWeatherWind HumidityBarometerVisibility
6:00 pm
Sat, Apr 29
54 °FCool.6 mph94%29.56 "HgN/A
5:30 pm55 °FCool.9 mph88%29.59 "HgN/A
5:00 pm57 °FCool.10 mph82%29.59 "HgN/A
4:30 pm59 °FCool.10 mph77%29.59 "HgN/A
4:00 pm59 °FCool.13 mph77%29.59 "HgN/A
3:30 pm59 °FCool.14 mph77%29.59 "HgN/A
3:00 pm61 °FCool.16 mph72%29.62 "HgN/A
2:30 pm61 °FCool.15 mph77%29.62 "HgN/A
2:00 pm61 °FCool.17 mph72%29.62 "HgN/A
1:30 pm61 °FCool.17 mph72%29.65 "HgN/A
1:00 pm61 °FCool.18 mph72%29.65 "HgN/A
12:30 pm61 °FCool.16 mph72%29.68 "HgN/A
12:00 pm61 °FCool.17 mph72%29.68 "HgN/A
11:30 am61 °FCool.18 mph72%29.71 "HgN/A
11:00 am59 °FCool.20 mph72%29.71 "HgN/A
10:30 am59 °FScattered clouds.17 mph72%29.71 "HgN/A
10:00 am59 °FScattered clouds.14 mph77%29.74 "HgN/A
9:30 am57 °FCool.13 mph77%29.74 "HgN/A
8:30 am54 °FCool.10 mph82%29.77 "HgN/A
8:00 am52 °FCool.9 mph82%29.77 "HgN/A
7:30 am50 °FCool.10 mph88%29.77 "HgN/A
7:00 am50 °FCool.9 mph88%29.77 "HgN/A
6:30 am52 °FCool.12 mph82%29.77 "HgN/A
6:00 am52 °FCool.13 mph82%29.80 "HgN/A
5:30 am52 °FCool.12 mph82%29.80 "HgN/A
5:00 am52 °FPassing clouds.12 mph82%29.80 "HgN/A
4:30 am52 °FPassing clouds.13 mph82%29.80 "HgN/A
4:00 am52 °FOvercast.10 mph88%29.80 "HgN/A
3:30 am52 °FPassing clouds.12 mph88%29.83 "HgN/A
3:00 am50 °FPassing clouds.8 mph94%29.83 "HgN/A
2:30 am45 °FQuite cool.7 mph93%29.83 "HgN/A
2:00 am46 °FCool.5 mph93%29.83 "HgN/A
1:30 am50 °FCool.3 mph88%29.86 "HgN/A
1:00 am52 °FCool.5 mph82%29.83 "HgN/A
12:30 am52 °FCool.6 mph82%29.83 "HgN/A
12:00 am54 °FCool.10 mph77%29.83 "HgN/A
11:30 pm
Fri, Apr 28
54 °FCool.12 mph77%29.83 "HgN/A
11:00 pm54 °FCool.15 mph77%29.83 "HgN/A
10:30 pm54 °FCool.17 mph77%29.83 "HgN/A
10:00 pm54 °FCool.16 mph77%29.83 "HgN/A
9:30 pm55 °FCool.18 mph77%29.77 "HgN/A
9:00 pm55 °FCool.22 mph77%29.74 "HgN/A
8:30 pm55 °FCool.20 mph77%29.71 "HgN/A
7:30 pm59 °FCool.12 mph72%29.68 "HgN/A
7:00 pm63 °FMild.7 mph52%29.65 "HgN/A
Weather by CustomWeather, © 2017

See weather overviewHow to use our weather pages